DW6885 Weather Reports


Display with metric or nautical units.
time (UTC)temp
F
wind
direction
speed
MPH
gust
MPH
rain 1hr
in
rain 24hr
in
rain mn
in
humidity
%
barometer
mb
20150905033711 53 348 0.0 0.0 0.00 0.01 0.01 94 1023.9
20150905031906 53 348 0.0 0.0 0.00 0.01 0.01 93 1023.7
20150905030406 53 348 0.0 0.0 0.00 0.01 0.01 92 1023.7
20150905024907 54 348 0.0 0.0 0.00 0.01 0.01 91 1023.4
20150905024510 55 348 0.0 0.0 0.00 0.01 0.01 91 1023.4
20150905023406 55 348 0.0 0.0 0.00 0.01 0.01 90 1023.5
20150905022510 55 348 0.0 0.0 0.00 0.01 0.01 89 1023.4
20150905021907 55 348 0.0 0.0 0.00 0.01 0.01 88 1023.4
20150905020309 56 348 0.0 0.0 0.00 0.01 0.01 88 1023.3
20150905015510 57 348 0.0 0.0 0.00 0.01 0.01 87 1023.3
20150905014712 57 348 0.0 0.0 0.00 0.01 0.01 87 1023.3
20150905013214 58 348 0.0 0.0 0.00 0.01 0.01 85 1023.4
20150905012509 59 348 0.0 0.0 0.00 0.01 0.01 84 1023.4
20150905011711 59 348 0.0 0.0 0.00 0.01 0.01 83 1023.3
20150905010209 60 348 0.0 3.0 0.00 0.01 0.01 81 1023.0
20150905004711 60 348 0.0 3.0 0.00 0.01 0.01 80 1022.9
20150905004510 61 348 0.0 2.0 0.00 0.01 0.01 80 1022.8
20150905003510 61 355 0.0 1.0 0.00 0.01 0.01 81 1022.6
20150905003013 61 355 0.0 3.0 0.00 0.01 0.01 80 1022.6
20150905002510 62 345 0.0 0.0 0.00 0.01 0.01 80 1022.5
20150905001711 62 345 0.0 0.0 0.00 0.01 0.01 80 1022.4
20150905001511 63 345 0.0 0.0 0.00 0.01 0.01 79 1022.4
20150905000510 63 345 0.0 1.0 0.00 0.01 0.01 79 1022.2
20150904235906 63 345 0.0 1.0 0.00 0.01 0.01 79 1022.1
20150904235510 64 345 0.0 2.0 0.00 0.01 0.01 79 1021.9
20150904234406 64 345 0.0 2.0 0.00 0.01 0.01 80 1021.7
20150904232906 65 345 0.0 1.0 0.00 0.01 0.01 79 1021.5
20150904232509 66 345 0.0 1.0 0.00 0.01 0.01 78 1021.5
20150904231509 66 345 0.0 0.0 0.00 0.01 0.01 78 1021.4
20150904231406 66 345 0.0 0.0 0.00 0.01 0.01 78 1021.4
20150904230510 67 345 0.0 2.0 0.00 0.01 0.01 78 1021.3
20150904225906 67 345 0.0 3.0 0.00 0.01 0.01 77 1021.3
20150904225510 67 180 0.0 1.0 0.00 0.01 0.01 77 1021.2
20150904224509 68 179 0.0 1.0 0.00 0.01 0.01 76 1021.2
20150904224212 68 179 0.0 1.0 0.00 0.01 0.01 76 1021.1
20150904223510 69 179 0.0 2.0 0.00 0.01 0.01 75 1021.2
20150904222710 69 179 0.0 2.0 0.00 0.01 0.01 75 1021.2
20150904222510 69 179 0.0 3.0 0.00 0.01 0.01 74 1021.3
20150904221509 70 339 0.0 3.0 0.00 0.01 0.01 73 1021.1
20150904221213 69 325 1.0 4.0 0.00 0.01 0.01 73 1021.1
20150904215710 71 210 1.0 7.0 0.00 0.01 0.01 70 1020.9
20150904215509 71 311 0.0 2.0 0.00 0.01 0.01 69 1020.8
20150904214509 72 237 0.0 3.0 0.00 0.01 0.01 64 1020.6
20150904214213 72 242 0.0 4.0 0.00 0.01 0.01 65 1020.6
20150904212707 73 262 0.0 3.0 0.00 0.01 0.01 61 1020.6
20150904211510 74 200 0.0 3.0 0.00 0.01 0.01 62 1020.6
20150904211014 74 325 0.0 3.0 0.00 0.01 0.01 62 1020.7
20150904205507 74 301 0.0 4.0 0.00 0.01 0.01 62 1020.6
20150904204510 74 289 1.0 5.0 0.00 0.01 0.01 62 1020.6
20150904204007 74 313 1.0 5.0 0.00 0.01 0.01 59 1020.5
20150904202406 74 69 0.0 7.0 0.00 0.01 0.01 60 1020.6
20150904201509 75 357 1.0 3.0 0.00 0.01 0.01 60 1020.4
20150904200906 75 340 0.0 3.0 0.00 0.01 0.01 58 1020.5
20150904195510 76 156 1.0 3.0 0.00 0.01 0.01 62 1020.6
20150904195407 75 157 0.0 6.0 0.00 0.01 0.01 62 1020.6
20150904194509 76 223 1.0 3.0 0.00 0.01 0.01 59 1020.6
20150904193809 75 19 1.0 5.0 0.00 0.01 0.01 59 1020.6
20150904193509 76 295 1.0 3.0 0.00 0.01 0.01 58 1020.6
20150904192407 75 256 1.0 4.0 0.00 0.01 0.01 60 1020.6
20150904190808 75 335 1.0 4.0 0.00 0.01 0.01 57 1020.8
20150904190509 75 246 1.0 3.0 0.00 0.01 0.01 61 1020.8
20150904185509 75 342 1.0 3.0 0.00 0.01 0.01 63 1020.7
20150904185211 74 340 2.0 5.0 0.00 0.01 0.01 65 1020.8
20150904184509 75 0 1.0 5.0 0.00 0.01 0.01 65 1020.9
20150904183709 74 226 1.0 4.0 0.00 0.01 0.01 62 1020.9
20150904182509 74 224 2.0 7.0 0.00 0.01 0.01 62 1021.0
20150904182211 73 244 0.0 4.0 0.00 0.01 0.01 63 1021.0
20150904180709 72 306 0.0 3.0 0.00 0.01 0.01 65 1021.1
20150904180510 72 316 1.0 3.0 0.00 0.01 0.01 67 1021.1
20150904175212 72 205 1.0 5.0 0.00 0.01 0.01 62 1021.0
20150904173510 73 288 1.0 8.0 0.00 0.01 0.01 65 1021.0
20150904173506 72 288 0.0 4.0 0.00 0.01 0.01 64 1021.0
20150904172509 73 216 1.0 8.0 0.00 0.01 0.01 59 1021.0
20150904172007 73 264 0.0 6.0 0.00 0.01 0.01 57 1020.9
20150904171510 73 138 2.0 6.0 0.00 0.01 0.01 62 1020.8
20150904170506 72 298 0.0 9.0 0.00 0.01 0.01 61 1020.9
20150904165510 72 192 2.0 6.0 0.00 0.01 0.01 62 1020.9
20150904164906 71 285 2.0 8.0 0.00 0.01 0.01 65 1021.0
20150904164510 72 65 1.0 5.0 0.00 0.01 0.01 63 1021.0
20150904163406 71 298 1.0 6.0 0.00 0.01 0.01 63 1021.0
20150904162511 71 196 1.0 3.0 0.00 0.01 0.01 68 1020.9
20150904161906 70 315 0.0 5.0 0.00 0.01 0.01 70 1020.9
20150904160509 71 342 1.0 6.0 0.00 0.01 0.01 63 1021.1
20150904160406 70 342 1.0 5.0 0.00 0.01 0.01 64 1021.1
20150904155007 70 177 0.0 5.0 0.00 0.01 0.01 65 1021.0
20150904154510 70 164 2.0 7.0 0.00 0.01 0.01 69 1020.9
20150904153509 69 170 1.0 3.0 0.00 0.01 0.01 67 1021.1
20150904153215 69 237 0.0 4.0 0.00 0.01 0.01 69 1021.1
20150904152510 68 286 1.0 6.0 0.00 0.01 0.01 70 1021.0
20150904151710 68 345 0.0 7.0 0.00 0.01 0.01 69 1021.0
20150904145509 68 209 1.0 3.0 0.00 0.01 0.01 74 1020.7
20150904144907 67 206 1.0 5.0 0.00 0.01 0.01 69 1020.4
20150904143510 66 208 1.0 6.0 0.00 0.01 0.01 76 1020.3
20150904143031 66 289 0.0 4.0 0.00 0.01 0.01 75 1020.3
20150904142510 66 153 1.0 3.0 0.00 0.01 0.01 76 1020.3
20150904141509 66 300 1.0 6.0 0.00 0.01 0.01 75 1020.5
20150904141507 65 315 0.0 4.0 0.00 0.01 0.01 74 1020.4
20150904140006 65 304 1.0 8.0 0.00 0.01 0.01 77 1020.5
20150904135510 66 18 1.0 7.0 0.00 0.01 0.01 74 1020.3
20150904134407 65 5 0.0 3.0 0.00 0.01 0.01 78 1020.3
20150904133007 64 290 0.0 4.0 0.00 0.01 0.01 80 1020.0
20150904132510 65 195 1.0 5.0 0.00 0.01 0.01 79 1019.8
20150904131509 65 337 0.0 5.0 0.00 0.01 0.01 82 1019.7
20150904131407 64 337 0.0 5.0 0.00 0.01 0.01 81 1019.7
20150904125809 63 355 0.0 4.0 0.00 0.01 0.01 82 1019.5
20150904124509 63 358 1.0 3.0 0.00 0.01 0.01 83 1019.4
20150904124406 63 281 0.0 2.0 0.00 0.01 0.01 83 1019.4
20150904123509 63 281 1.0 6.0 0.00 0.01 0.01 83 1019.2
20150904122709 62 300 1.0 5.0 0.00 0.01 0.01 83 1019.3
20150904122510 63 247 1.0 3.0 0.00 0.01 0.01 84 1019.3
20150904121212 62 75 1.0 12.0 0.00 0.01 0.01 85 1019.2
20150904120509 62 215 3.0 12.0 0.00 0.01 0.01 88 1019.1
20150904115707 61 304 0.0 3.0 0.00 0.01 0.01 93 1018.9
20150904114510 61 304 1.0 3.0 0.00 0.01 0.01 94 1018.7
20150904114211 61 337 0.0 1.0 0.00 0.01 0.01 93 1018.7
20150904113510 61 337 0.0 5.0 0.00 0.01 0.01 92 1018.8
20150904112807 60 266 0.0 4.0 0.00 0.01 0.01 93 1018.7
20150904112509 60 265 1.0 6.0 0.00 0.01 0.01 93 1018.6
20150904111212 60 11 0.0 3.0 0.00 0.01 0.01 96 1018.4
20150904105510 60 46 0.0 3.0 0.00 0.01 0.01 95 1018.1
20150904104510 60 265 0.0 2.0 0.01 0.01 0.01 96 1017.9
20150904104006 60 265 0.0 3.0 0.00 0.01 0.01 95 1017.8
20150904103509 60 265 1.0 2.0 0.01 0.01 0.01 95 1017.7
20150904102406 60 310 0.0 3.0 0.01 0.01 0.01 95 1017.5
20150904101510 61 294 1.0 7.0 0.01 0.01 0.01 94 1017.2
20150904100906 60 348 1.0 7.0 0.01 0.01 0.01 94 1017.1
20150904095509 62 232 1.0 5.0 0.01 0.01 0.01 97 1016.9
20150904094509 63 254 0.0 7.0 0.01 0.01 0.01 97 1016.7
20150904093509 64 98 0.0 3.0 0.00 0.00 0.00 98 1016.7
20150904092212 64 15 0.0 8.0 0.00 0.00 0.00 99 1016.4
20150904091509 65 280 1.0 8.0 0.00 0.00 0.00 99 1016.2
20150904090709 65 338 0.0 8.0 0.00 0.00 0.00 99 1015.9
20150904090510 65 323 1.0 8.0 0.00 0.00 0.00 99 1015.9
20150904085509 65 227 1.0 3.0 0.00 0.00 0.00 99 1015.6
20150904083709 64 74 0.0 3.0 0.00 0.00 0.00 99 1015.4
20150904083509 65 42 1.0 2.0 0.00 0.00 0.00 99 1015.4
20150904082509 64 5 0.0 1.0 0.00 0.00 0.00 99 1015.3
20150904082212 64 5 0.0 1.0 0.00 0.00 0.00 99 1015.3
20150904080707 64 5 0.0 0.0 0.00 0.00 0.00 99 1015.1
20150904080509 65 5 0.0 0.0 0.00 0.00 0.00 99 1015.0
20150904075510 65 5 0.0 0.0 0.00 0.00 0.00 99 1014.9
20150904075007 65 5 0.0 0.0 0.00 0.00 0.00 99 1014.9
20150904073510 66 5 0.0 0.0 0.00 0.00 0.00 99 1014.7
20150904073506 65 5 0.0 0.0 0.00 0.00 0.00 99 1014.7
20150904071908 66 5 0.0 0.0 0.00 0.00 0.00 99 1014.6
20150904071509 66 5 0.0 0.0 0.00 0.00 0.00 99 1014.5
20150904070506 65 5 0.0 0.0 0.00 0.00 0.00 99 1014.4
20150904065007 65 5 0.0 0.0 0.00 0.00 0.00 99 1014.3
20150904063506 65 5 0.0 0.0 0.00 0.00 0.00 99 1014.2
20150904062514 66 5 0.0 0.0 0.00 0.00 0.00 98 1014.1
20150904061906 65 5 0.0 0.0 0.00 0.00 0.00 98 1014.0
20150904061512 66 5 0.0 0.0 0.00 0.00 0.00 99 1014.0
20150904060513 66 5 0.0 0.0 0.00 0.00 0.00 99 1014.0
20150904060406 66 5 0.0 0.0 0.00 0.00 0.00 99 1014.0
20150904055511 67 5 0.0 0.0 0.00 0.00 0.00 99 1013.8
20150904054806 66 5 0.0 0.0 0.00 0.00 0.00 99 1013.7
20150904054511 67 5 0.0 0.0 0.00 0.00 0.00 99 1013.7
20150904053510 67 5 0.0 0.0 0.00 0.00 0.00 99 1013.8
20150904053310 66 5 0.0 0.0 0.00 0.00 0.00 99 1013.8
20150904051807 66 5 0.0 0.0 0.00 0.00 0.00 99 1013.9
20150904051510 66 5 0.0 0.0 0.00 0.00 0.00 98 1013.8
20150904044810 66 5 0.0 0.0 0.00 0.00 0.00 98 1013.7
20150904043510 67 5 0.0 0.0 0.00 0.00 0.00 98 1013.6
20150904043307 67 5 0.0 0.0 0.00 0.00 0.00 98 1013.6
20150904042510 67 5 0.0 0.0 0.00 0.00 0.00 98 1013.5
20150904041512 67 5 0.0 0.0 0.00 0.00 0.00 98 1013.5
20150904040511 67 5 0.0 0.0 0.00 0.00 0.00 98 1013.4
20150904040306 67 5 0.0 0.0 0.00 0.00 0.00 98 1013.4
20150904034708 67 5 0.0 0.0 0.00 0.00 0.00 98 1013.4